TimeMDT,TemperatureF,Dew PointF,Humidity,Sea Level PressureIn,VisibilityMPH,Wind Direction,Wind SpeedMPH,Gust SpeedMPH,PrecipitationIn,Events,Conditions,WindDirDegrees,DateUTC
12:15 AM,59.0,23.0,25,30.15,10.0,West,15.0,21.9,N/A,,Clear,260,2013-05-14 06:15:00
12:35 AM,59.0,23.0,25,30.13,10.0,WSW,21.9,27.6,N/A,,Clear,250,2013-05-14 06:35:00
12:55 AM,59.0,23.0,25,30.11,10.0,WSW,26.5,34.5,N/A,,Clear,250,2013-05-14 06:55:00
1:15 AM,59.0,23.0,25,30.10,10.0,WSW,27.6,34.5,N/A,,Clear,250,2013-05-14 07:15:00
1:35 AM,59.0,23.0,25,30.10,10.0,WSW,24.2,34.5,N/A,,Clear,250,2013-05-14 07:35:00
1:55 AM,59.0,23.0,25,30.09,10.0,West,23.0,31.1,N/A,,Clear,260,2013-05-14 07:55:00
2:15 AM,59.0,23.0,25,30.09,10.0,West,23.0,34.5,N/A,,Clear,260,2013-05-14 08:15:00
2:35 AM,59.0,23.0,25,30.09,10.0,West,21.9,31.1,N/A,,Clear,260,2013-05-14 08:35:00
2:55 AM,59.0,23.0,25,30.10,10.0,West,19.6,28.8,N/A,,Clear,270,2013-05-14 08:55:00
3:15 AM,59.0,24.8,27,30.11,10.0,West,16.1,25.3,N/A,,Clear,270,2013-05-14 09:15:00
3:35 AM,59.0,24.8,27,30.12,10.0,West,13.8,23.0,N/A,,Clear,280,2013-05-14 09:35:00
3:55 AM,59.0,26.6,29,30.12,10.0,West,13.8,18.4,N/A,,Clear,280,2013-05-14 09:55:00
4:15 AM,59.0,26.6,29,30.13,10.0,WNW,11.5,17.3,N/A,,Clear,290,2013-05-14 10:15:00
4:35 AM,57.2,26.6,31,30.13,10.0,WNW,11.5,18.4,N/A,,Clear,290,2013-05-14 10:35:00
4:55 AM,57.2,24.8,29,30.13,10.0,WNW,12.7,17.3,N/A,,Clear,290,2013-05-14 10:55:00
5:15 AM,57.2,23.0,27,30.13,10.0,WNW,12.7,-,N/A,,Clear,290,2013-05-14 11:15:00
5:35 AM,55.4,23.0,29,30.14,10.0,NW,10.4,17.3,N/A,,Clear,310,2013-05-14 11:35:00
5:55 AM,55.4,21.2,26,30.13,10.0,NW,10.4,-,N/A,,Clear,310,2013-05-14 11:55:00
6:15 AM,55.4,21.2,26,30.14,10.0,WNW,9.2,-,N/A,,Clear,300,2013-05-14 12:15:00
6:35 AM,55.4,21.2,26,30.15,10.0,NW,6.9,-,N/A,,Clear,310,2013-05-14 12:35:00
6:55 AM,57.2,21.2,25,30.15,10.0,WNW,8.1,-,N/A,,Clear,290,2013-05-14 12:55:00
7:15 AM,59.0,21.2,23,30.16,10.0,West,6.9,-,N/A,,Scattered Clouds,280,2013-05-14 13:15:00
7:35 AM,59.0,19.4,22,30.16,10.0,WNW,10.4,-,N/A,,Clear,290,2013-05-14 13:35:00
7:55 AM,60.8,19.4,20,30.16,10.0,West,9.2,-,N/A,,Clear,270,2013-05-14 13:55:00
8:15 AM,60.8,19.4,20,30.17,10.0,WNW,10.4,-,N/A,,Clear,290,2013-05-14 14:15:00
8:35 AM,60.8,21.2,22,30.16,10.0,West,8.1,16.1,N/A,,Clear,260,2013-05-14 14:35:00
8:55 AM,60.8,21.2,22,30.17,10.0,West,9.2,19.6,N/A,,Clear,270,2013-05-14 14:55:00
9:15 AM,62.6,21.2,20,30.17,10.0,West,8.1,17.3,N/A,,Scattered Clouds,270,2013-05-14 15:15:00
9:35 AM,62.6,23.0,22,30.17,10.0,SW,8.1,-,N/A,,Clear,230,2013-05-14 15:35:00
9:55 AM,62.6,26.6,26,30.17,10.0,West,9.2,-,N/A,,Clear,260,2013-05-14 15:55:00
10:15 AM,62.6,26.6,26,30.17,10.0,SW,10.4,16.1,N/A,,Clear,230,2013-05-14 16:15:00
10:35 AM,62.6,19.4,19,30.17,10.0,West,13.8,20.7,N/A,,Clear,260,2013-05-14 16:35:00
10:55 AM,62.6,21.2,20,30.17,10.0,West,13.8,21.9,N/A,,Clear,270,2013-05-14 16:55:00
11:15 AM,64.4,23.0,21,30.17,10.0,West,11.5,19.6,N/A,,Clear,270,2013-05-14 17:15:00
11:35 AM,64.4,23.0,21,30.17,10.0,West,6.9,20.7,N/A,,Clear,270,2013-05-14 17:35:00
11:55 AM,64.4,24.8,22,30.17,10.0,West,16.1,21.9,N/A,,Clear,270,2013-05-14 17:55:00
12:15 PM,64.4,26.6,24,30.16,10.0,WSW,15.0,29.9,N/A,,Clear,250,2013-05-14 18:15:00
12:35 PM,64.4,24.8,22,30.16,10.0,West,13.8,32.2,N/A,,Scattered Clouds,270,2013-05-14 18:35:00
12:55 PM,68.0,26.6,21,30.15,10.0,West,12.7,31.1,N/A,,Scattered Clouds,260,2013-05-14 18:55:00
1:15 PM,66.2,26.6,23,30.15,10.0,WSW,15.0,24.2,N/A,,Scattered Clouds,250,2013-05-14 19:15:00
1:35 PM,64.4,26.6,24,30.14,10.0,West,13.8,26.5,N/A,,Mostly Cloudy,260,2013-05-14 19:35:00
1:55 PM,66.2,24.8,21,30.14,10.0,WSW,16.1,23.0,N/A,,Mostly Cloudy,240,2013-05-14 19:55:00
2:15 PM,64.4,26.6,24,30.13,10.0,West,15.0,24.2,N/A,,Mostly Cloudy,270,2013-05-14 20:15:00
2:35 PM,68.0,26.6,21,30.13,10.0,West,16.1,24.2,N/A,,Scattered Clouds,260,2013-05-14 20:35:00
2:55 PM,66.2,24.8,21,30.12,10.0,WSW,20.7,27.6,N/A,,Scattered Clouds,240,2013-05-14 20:55:00
3:15 PM,68.0,24.8,20,30.12,10.0,West,17.3,24.2,N/A,,Mostly Cloudy,260,2013-05-14 21:15:00
3:35 PM,64.4,28.4,26,30.11,10.0,WNW,19.6,38.0,N/A,,Scattered Clouds,290,2013-05-14 21:35:00
3:55 PM,68.0,26.6,21,30.11,10.0,West,15.0,18.4,N/A,,Scattered Clouds,260,2013-05-14 21:55:00
4:15 PM,66.2,26.6,23,30.10,10.0,West,11.5,31.1,N/A,,Scattered Clouds,270,2013-05-14 22:15:00
4:35 PM,66.2,24.8,21,30.09,10.0,West,13.8,26.5,N/A,,Scattered Clouds,270,2013-05-14 22:35:00
4:55 PM,68.0,26.6,21,30.09,10.0,WNW,15.0,-,N/A,,Clear,290,2013-05-14 22:55:00
5:15 PM,68.0,24.8,20,30.09,10.0,West,6.9,23.0,N/A,,Scattered Clouds,270,2013-05-14 23:15:00
5:35 PM,68.0,23.0,18,30.09,10.0,West,12.7,26.5,N/A,,Mostly Cloudy,260,2013-05-14 23:35:00
5:55 PM,68.0,23.0,18,30.09,10.0,West,15.0,18.4,N/A,,Scattered Clouds,260,2013-05-14 23:55:00
6:15 PM,64.4,23.0,21,30.09,10.0,West,11.5,17.3,N/A,,Scattered Clouds,260,2013-05-15 00:15:00
6:35 PM,66.2,23.0,19,30.08,10.0,West,15.0,21.9,N/A,,Scattered Clouds,270,2013-05-15 00:35:00
6:55 PM,64.4,23.0,21,30.08,10.0,WSW,15.0,19.6,N/A,,Clear,250,2013-05-15 00:55:00
7:15 PM,64.4,23.0,21,30.08,10.0,West,10.4,19.6,N/A,,Clear,270,2013-05-15 01:15:00
7:35 PM,64.4,26.6,24,30.08,10.0,West,9.2,-,N/A,,Clear,260,2013-05-15 01:35:00
7:55 PM,62.6,26.6,26,30.08,10.0,West,11.5,16.1,N/A,,Clear,280,2013-05-15 01:55:00
8:15 PM,60.8,26.6,27,30.09,10.0,West,4.6,-,N/A,,Clear,280,2013-05-15 02:15:00
8:35 PM,60.8,26.6,27,30.09,10.0,West,6.9,-,N/A,,Clear,280,2013-05-15 02:35:00
8:55 PM,59.0,26.6,29,30.09,10.0,WNW,8.1,-,N/A,,Clear,290,2013-05-15 02:55:00
9:15 PM,59.0,26.6,29,30.09,10.0,WNW,9.2,-,N/A,,Clear,290,2013-05-15 03:15:00
9:35 PM,59.0,26.6,29,30.09,10.0,NW,9.2,-,N/A,,Clear,310,2013-05-15 03:35:00
9:55 PM,55.4,26.6,33,30.10,10.0,NW,9.2,-,N/A,,Clear,310,2013-05-15 03:55:00
10:15 PM,53.6,26.6,35,30.10,10.0,NW,10.4,-,N/A,,Clear,310,2013-05-15 04:15:00
10:35 PM,53.6,26.6,35,30.10,10.0,NW,10.4,-,N/A,,Clear,320,2013-05-15 04:35:00
10:55 PM,55.4,26.6,33,30.10,10.0,NW,10.4,-,N/A,,Clear,320,2013-05-15 04:55:00
11:15 PM,53.6,26.6,35,30.10,10.0,NW,10.4,-,N/A,,Clear,320,2013-05-15 05:15:00
11:35 PM,53.6,26.6,35,30.10,10.0,NW,8.1,-,N/A,,Clear,320,2013-05-15 05:35:00
11:55 PM,53.6,24.8,33,30.10,10.0,WNW,9.2,-,N/A,,Clear,300,2013-05-15 05:55:00